Location: Stara Lesna
(49.1528°N, 20.2911°E)
Time: 03:31:15
(UTC+02:00)

NPP - Pass Details

Date: 13 July 2020
Orbit: 826 x 828 km, 98.7° (Epoch: 11 August)

Event Time Altitude Azimuth Distance (km) Brightness Sun altitude
Rises 01:55:17 0° 19° (NNE) 3,379 8.6 -17.3°
Reaches altitude 10° 01:57:46 10° 27° (NNE) 2,440 7.4 -17.2°
Maximum altitude 02:02:54 43° 98° (E) 1,153 4.5 -16.9°
Enters shadow 02:06:24 19° 161° (SSE) 1,865 5.1 -16.8°
